Year,Month,Day,Hour,Minute,Value (Times are PST for temperature in C)
2017,12,06,00,00,2.50
2017,12,06,00,01,2.60
2017,12,06,00,02,2.60
2017,12,06,00,03,2.60
2017,12,06,00,04,2.70
2017,12,06,00,05,2.70
2017,12,06,00,06,2.70
2017,12,06,00,07,2.70
2017,12,06,00,08,2.70
2017,12,06,00,09,2.70
2017,12,06,00,10,2.80
2017,12,06,00,11,2.80
2017,12,06,00,12,2.80
2017,12,06,00,13,2.80
2017,12,06,00,14,2.80
2017,12,06,00,15,2.90
2017,12,06,00,16,2.90
2017,12,06,00,17,2.90
2017,12,06,00,18,2.90
2017,12,06,00,19,2.90
2017,12,06,00,20,2.90
2017,12,06,00,21,2.90
2017,12,06,00,22,2.90
2017,12,06,00,23,2.90
2017,12,06,00,24,2.90
2017,12,06,00,25,2.90
2017,12,06,00,26,2.80
2017,12,06,00,27,2.80
2017,12,06,00,28,2.80
2017,12,06,00,29,2.80
2017,12,06,00,30,2.80
2017,12,06,00,31,2.80
2017,12,06,00,32,2.80
2017,12,06,00,33,2.80
2017,12,06,00,34,2.80
2017,12,06,00,35,2.80
2017,12,06,00,36,2.80
2017,12,06,00,37,2.80
2017,12,06,00,38,2.80
2017,12,06,00,39,2.80
2017,12,06,00,40,2.80
2017,12,06,00,41,2.80
2017,12,06,00,42,2.80
2017,12,06,00,43,2.80
2017,12,06,00,44,2.90
2017,12,06,00,45,2.90
2017,12,06,00,46,2.90
2017,12,06,00,47,2.90
2017,12,06,00,48,2.90
2017,12,06,00,49,3.00
2017,12,06,00,50,3.00
2017,12,06,00,51,3.00
2017,12,06,00,52,3.00
2017,12,06,00,53,3.00
2017,12,06,00,54,3.00
2017,12,06,00,55,3.00
2017,12,06,00,56,3.10
2017,12,06,00,57,3.10
2017,12,06,00,58,3.10
2017,12,06,00,59,3.10
2017,12,06,01,00,3.10
2017,12,06,01,01,3.10
2017,12,06,01,02,3.10
2017,12,06,01,03,3.20
2017,12,06,01,04,3.20
2017,12,06,01,05,3.20
2017,12,06,01,06,3.20
2017,12,06,01,07,3.20
2017,12,06,01,08,3.20
2017,12,06,01,09,3.20
2017,12,06,01,10,3.20
2017,12,06,01,11,3.20
2017,12,06,01,12,3.20
2017,12,06,01,13,3.20
2017,12,06,01,14,3.20
2017,12,06,01,15,3.20
2017,12,06,01,16,3.20
2017,12,06,01,17,3.10
2017,12,06,01,18,3.10
2017,12,06,01,19,3.10
2017,12,06,01,20,3.10
2017,12,06,01,21,3.10
2017,12,06,01,22,3.10
2017,12,06,01,23,3.10
2017,12,06,01,24,3.10
2017,12,06,01,25,3.10
2017,12,06,01,26,3.10
2017,12,06,01,27,3.10
2017,12,06,01,28,3.10
2017,12,06,01,29,3.10
2017,12,06,01,30,3.10
2017,12,06,01,31,3.10
2017,12,06,01,32,3.20
2017,12,06,01,33,3.20
2017,12,06,01,34,3.20
2017,12,06,01,35,3.20
2017,12,06,01,36,3.20
2017,12,06,01,37,3.20
2017,12,06,01,38,3.10
2017,12,06,01,39,3.10
2017,12,06,01,40,3.10
2017,12,06,01,41,3.10
2017,12,06,01,42,3.10
2017,12,06,01,43,3.00
2017,12,06,01,44,3.00
2017,12,06,01,45,3.00
2017,12,06,01,46,3.00
2017,12,06,01,47,3.00
2017,12,06,01,48,3.00
2017,12,06,01,49,2.90
2017,12,06,01,50,2.90
2017,12,06,01,51,2.90
2017,12,06,01,52,2.90
2017,12,06,01,53,3.00
2017,12,06,01,54,3.00
2017,12,06,01,55,3.00
2017,12,06,01,56,3.00
2017,12,06,01,57,3.00
2017,12,06,01,58,3.10
2017,12,06,01,59,3.10
2017,12,06,02,00,3.10
2017,12,06,02,01,3.10
2017,12,06,02,02,3.10
2017,12,06,02,03,3.10
2017,12,06,02,04,3.00
2017,12,06,02,05,3.00
2017,12,06,02,06,3.00
2017,12,06,02,07,2.90
2017,12,06,02,08,2.90
2017,12,06,02,09,2.90
2017,12,06,02,10,2.90
2017,12,06,02,11,2.80
2017,12,06,02,12,2.80
2017,12,06,02,13,2.80
2017,12,06,02,14,2.80
2017,12,06,02,15,2.80
2017,12,06,02,16,2.70
2017,12,06,02,17,2.70
2017,12,06,02,18,2.70
2017,12,06,02,19,2.70
2017,12,06,02,20,2.60
2017,12,06,02,21,2.60
2017,12,06,02,22,2.60
2017,12,06,02,23,2.60
2017,12,06,02,24,2.60
2017,12,06,02,25,2.60
2017,12,06,02,26,2.60
2017,12,06,02,27,2.70
2017,12,06,02,28,2.70
2017,12,06,02,29,2.70
2017,12,06,02,30,2.70
2017,12,06,02,31,2.70
2017,12,06,02,32,2.80
2017,12,06,02,33,2.80
2017,12,06,02,34,2.80
2017,12,06,02,35,2.80
2017,12,06,02,36,2.80
2017,12,06,02,37,2.80
2017,12,06,02,38,2.80
2017,12,06,02,39,2.80
2017,12,06,02,40,2.80
2017,12,06,02,41,2.80
2017,12,06,02,42,2.80
2017,12,06,02,43,2.80
2017,12,06,02,44,2.80
2017,12,06,02,45,2.80
2017,12,06,02,46,2.90
2017,12,06,02,47,2.90
2017,12,06,02,48,2.90
2017,12,06,02,49,2.90
2017,12,06,02,50,2.90
2017,12,06,02,51,2.90
2017,12,06,02,52,2.90
2017,12,06,02,53,2.90
2017,12,06,02,54,2.90
2017,12,06,02,55,3.00
2017,12,06,02,56,3.00
2017,12,06,02,57,3.00
2017,12,06,02,58,3.00
2017,12,06,02,59,3.10
2017,12,06,03,00,3.10
2017,12,06,03,01,3.10
2017,12,06,03,02,3.10
2017,12,06,03,03,3.20
2017,12,06,03,04,3.20
2017,12,06,03,05,3.10
2017,12,06,03,06,3.10
2017,12,06,03,07,3.20
2017,12,06,03,08,3.20
2017,12,06,03,09,3.10
2017,12,06,03,10,3.10
2017,12,06,03,11,3.10
2017,12,06,03,12,3.10
2017,12,06,03,13,3.10
2017,12,06,03,14,3.10
2017,12,06,03,15,3.10
2017,12,06,03,16,3.10
2017,12,06,03,17,3.10
2017,12,06,03,18,3.10
2017,12,06,03,19,3.10
2017,12,06,03,20,3.10
2017,12,06,03,21,3.00
2017,12,06,03,22,3.00
2017,12,06,03,23,3.00
2017,12,06,03,24,2.90
2017,12,06,03,25,2.90
2017,12,06,03,26,2.90
2017,12,06,03,27,2.80
2017,12,06,03,28,2.80
2017,12,06,03,29,2.80
2017,12,06,03,30,2.80
2017,12,06,03,31,2.80
2017,12,06,03,32,2.80
2017,12,06,03,33,2.80
2017,12,06,03,34,2.80
2017,12,06,03,35,2.70
2017,12,06,03,36,2.70
2017,12,06,03,37,2.70
2017,12,06,03,38,2.70
2017,12,06,03,39,2.80
2017,12,06,03,40,2.80
2017,12,06,03,41,2.80
2017,12,06,03,42,2.80
2017,12,06,03,43,2.70
2017,12,06,03,44,2.70
2017,12,06,03,45,2.70
2017,12,06,03,46,2.70
2017,12,06,03,47,2.70
2017,12,06,03,48,2.60
2017,12,06,03,49,2.60
2017,12,06,03,50,2.50
2017,12,06,03,51,2.50
2017,12,06,03,52,2.40
2017,12,06,03,53,2.40
2017,12,06,03,54,2.40
2017,12,06,03,55,2.40
2017,12,06,03,56,2.30
2017,12,06,03,57,2.30
2017,12,06,03,58,2.30
2017,12,06,03,59,2.30
2017,12,06,04,00,2.30
2017,12,06,04,01,2.30
2017,12,06,04,02,2.30
2017,12,06,04,03,2.30
2017,12,06,04,04,2.30
2017,12,06,04,05,2.30
2017,12,06,04,06,2.30
2017,12,06,04,07,2.30
2017,12,06,04,08,2.40
2017,12,06,04,09,2.40
2017,12,06,04,10,2.30
2017,12,06,04,11,2.30
2017,12,06,04,12,2.30
2017,12,06,04,13,2.30
2017,12,06,04,14,2.30
2017,12,06,04,15,2.30
2017,12,06,04,16,2.40
2017,12,06,04,17,2.40
2017,12,06,04,18,2.40
2017,12,06,04,19,2.50
2017,12,06,04,20,2.50
2017,12,06,04,21,2.50
2017,12,06,04,22,2.50
2017,12,06,04,23,2.50
2017,12,06,04,24,2.50
2017,12,06,04,25,2.50
2017,12,06,04,26,2.50
2017,12,06,04,27,2.50
2017,12,06,04,28,2.60
2017,12,06,04,29,2.60
2017,12,06,04,30,2.60
2017,12,06,04,31,2.60
2017,12,06,04,32,2.60
2017,12,06,04,33,2.60
2017,12,06,04,34,2.70
2017,12,06,04,35,2.70
2017,12,06,04,36,2.70
2017,12,06,04,37,2.70
2017,12,06,04,38,2.70
2017,12,06,04,39,2.70
2017,12,06,04,40,2.70
2017,12,06,04,41,2.80
2017,12,06,04,42,2.90
2017,12,06,04,43,2.90
2017,12,06,04,44,3.00
2017,12,06,04,45,3.00
2017,12,06,04,46,3.00
2017,12,06,04,47,3.10
2017,12,06,04,48,3.10
2017,12,06,04,49,3.10
2017,12,06,04,50,3.20
2017,12,06,04,51,3.20
2017,12,06,04,52,3.20
2017,12,06,04,53,3.20
2017,12,06,04,54,3.20
2017,12,06,04,55,3.20
2017,12,06,04,56,3.20
2017,12,06,04,57,3.20
2017,12,06,04,58,3.20
2017,12,06,04,59,3.20
2017,12,06,05,00,3.20
2017,12,06,05,01,3.20
2017,12,06,05,02,3.30
2017,12,06,05,03,3.30
2017,12,06,05,04,3.30
2017,12,06,05,05,3.30
2017,12,06,05,06,3.30
2017,12,06,05,07,3.30
2017,12,06,05,08,3.30
2017,12,06,05,09,3.30
2017,12,06,05,10,3.30
2017,12,06,05,11,3.30
2017,12,06,05,12,3.30
2017,12,06,05,13,3.20
2017,12,06,05,14,3.20
2017,12,06,05,15,3.20
2017,12,06,05,16,3.20
2017,12,06,05,17,3.20
2017,12,06,05,18,3.10
2017,12,06,05,19,3.10
2017,12,06,05,20,3.10
2017,12,06,05,21,3.10
2017,12,06,05,22,3.00
2017,12,06,05,23,3.00
2017,12,06,05,24,2.90
2017,12,06,05,25,2.90
2017,12,06,05,26,2.80
2017,12,06,05,27,2.80
2017,12,06,05,28,2.70
2017,12,06,05,29,2.80
2017,12,06,05,30,2.80
2017,12,06,05,31,2.80
2017,12,06,05,32,2.80
2017,12,06,05,33,2.80
2017,12,06,05,34,2.90
2017,12,06,05,35,2.90
2017,12,06,05,36,2.90
2017,12,06,05,37,3.00
2017,12,06,05,38,3.00
2017,12,06,05,39,3.00
2017,12,06,05,40,3.00
2017,12,06,05,41,3.00
2017,12,06,05,42,3.00
2017,12,06,05,43,3.10
2017,12,06,05,44,3.10
2017,12,06,05,45,3.10
2017,12,06,05,46,3.10
2017,12,06,05,47,3.10
2017,12,06,05,48,3.10
2017,12,06,05,49,3.10
2017,12,06,05,50,3.10
2017,12,06,05,51,3.10
2017,12,06,05,52,3.10
2017,12,06,05,53,3.00
2017,12,06,05,54,3.00
2017,12,06,05,55,3.00
2017,12,06,05,56,2.90
2017,12,06,05,57,2.90
2017,12,06,05,58,2.80
2017,12,06,05,59,2.80
2017,12,06,06,00,2.80
2017,12,06,06,01,2.80
2017,12,06,06,02,2.80
2017,12,06,06,03,2.80
2017,12,06,06,04,2.80
2017,12,06,06,05,2.80
2017,12,06,06,06,2.80
2017,12,06,06,07,2.80
2017,12,06,06,08,2.80
2017,12,06,06,09,2.80
2017,12,06,06,10,2.70
2017,12,06,06,11,2.70
2017,12,06,06,12,2.70
2017,12,06,06,13,2.70
2017,12,06,06,14,2.70
2017,12,06,06,15,2.70
2017,12,06,06,16,2.70
2017,12,06,06,17,2.70
2017,12,06,06,18,2.70
2017,12,06,06,19,2.70
2017,12,06,06,20,2.70
2017,12,06,06,21,2.60
2017,12,06,06,22,2.60
2017,12,06,06,23,2.60
2017,12,06,06,24,2.60
2017,12,06,06,25,2.60
2017,12,06,06,26,2.60
2017,12,06,06,27,2.60
2017,12,06,06,28,2.60
2017,12,06,06,29,2.60
2017,12,06,06,30,2.60
2017,12,06,06,31,2.60
2017,12,06,06,32,2.60
2017,12,06,06,33,2.60
2017,12,06,06,34,2.60
2017,12,06,06,35,2.60
2017,12,06,06,36,2.60
2017,12,06,06,37,2.60
2017,12,06,06,38,2.60
2017,12,06,06,39,2.60
2017,12,06,06,40,2.50
2017,12,06,06,41,2.50
2017,12,06,06,42,2.40
2017,12,06,06,43,2.40
2017,12,06,06,44,2.30
2017,12,06,06,45,2.30
2017,12,06,06,46,2.30
2017,12,06,06,47,2.30
2017,12,06,06,48,2.40
2017,12,06,06,49,2.40
2017,12,06,06,50,2.40
2017,12,06,06,51,2.40
2017,12,06,06,52,2.40
2017,12,06,06,53,2.40
2017,12,06,06,54,2.40
2017,12,06,06,55,2.40
2017,12,06,06,56,2.40
2017,12,06,06,57,2.40
2017,12,06,06,58,2.40
2017,12,06,06,59,2.30
2017,12,06,07,00,2.30
2017,12,06,07,01,2.30
2017,12,06,07,02,2.30
2017,12,06,07,03,2.30
2017,12,06,07,04,2.30
2017,12,06,07,05,2.30
2017,12,06,07,06,2.20
2017,12,06,07,07,2.20
2017,12,06,07,08,2.20
2017,12,06,07,09,2.20
2017,12,06,07,10,2.20
2017,12,06,07,11,2.20
2017,12,06,07,12,2.20
2017,12,06,07,13,2.20
2017,12,06,07,14,2.20
2017,12,06,07,15,2.20
2017,12,06,07,16,2.20
2017,12,06,07,17,2.30
2017,12,06,07,18,2.30
2017,12,06,07,19,2.30
2017,12,06,07,20,2.30
2017,12,06,07,21,2.30
2017,12,06,07,22,2.30
2017,12,06,07,23,2.30
2017,12,06,07,24,2.30
2017,12,06,07,25,2.30
2017,12,06,07,26,2.30
2017,12,06,07,27,2.20
2017,12,06,07,28,2.20
2017,12,06,07,29,2.20
2017,12,06,07,30,2.10
2017,12,06,07,31,2.10
2017,12,06,07,32,2.10
2017,12,06,07,33,2.10
2017,12,06,07,34,2.10
2017,12,06,07,35,2.10
2017,12,06,07,36,2.10
2017,12,06,07,37,2.20
2017,12,06,07,38,2.20
2017,12,06,07,39,2.20
2017,12,06,07,40,2.20
2017,12,06,07,41,2.20
2017,12,06,07,42,2.20
2017,12,06,07,43,2.20
2017,12,06,07,44,2.20
2017,12,06,07,45,2.20
2017,12,06,07,46,2.20
2017,12,06,07,47,2.20
2017,12,06,07,48,2.20
2017,12,06,07,49,2.20
2017,12,06,07,50,2.20
2017,12,06,07,51,2.20
2017,12,06,07,52,2.20
2017,12,06,07,53,2.20
2017,12,06,07,54,2.20
2017,12,06,07,55,2.20
2017,12,06,07,56,2.20
2017,12,06,07,57,2.10
2017,12,06,07,58,2.10
2017,12,06,07,59,2.10
2017,12,06,08,00,2.10
2017,12,06,08,01,2.10
2017,12,06,08,02,2.00
2017,12,06,08,03,2.00
2017,12,06,08,04,2.00
2017,12,06,08,05,2.00
2017,12,06,08,06,2.00
2017,12,06,08,07,2.10
2017,12,06,08,08,2.10
2017,12,06,08,09,2.10
2017,12,06,08,10,2.00
2017,12,06,08,11,2.00
2017,12,06,08,12,2.00
2017,12,06,08,13,2.10
2017,12,06,08,14,2.10
2017,12,06,08,15,2.10
2017,12,06,08,16,2.10
2017,12,06,08,17,2.10
2017,12,06,08,18,2.10
2017,12,06,08,19,2.10
2017,12,06,08,20,2.10
2017,12,06,08,21,2.10
2017,12,06,08,22,2.10
2017,12,06,08,23,2.20
2017,12,06,08,24,2.20
2017,12,06,08,25,2.30
2017,12,06,08,26,2.40
2017,12,06,08,27,2.40
2017,12,06,08,28,2.50
2017,12,06,08,29,2.50
2017,12,06,08,30,2.60
2017,12,06,08,31,2.60
2017,12,06,08,32,2.70
2017,12,06,08,33,2.70
2017,12,06,08,34,2.70
2017,12,06,08,35,2.80
2017,12,06,08,36,2.80
2017,12,06,08,37,2.80
2017,12,06,08,38,2.80
2017,12,06,08,39,2.80
2017,12,06,08,40,2.80
2017,12,06,08,41,2.80
2017,12,06,08,42,2.80
2017,12,06,08,43,2.90
2017,12,06,08,44,2.90
2017,12,06,08,45,2.90
2017,12,06,08,46,2.90
2017,12,06,08,47,2.90
2017,12,06,08,48,2.90
2017,12,06,08,49,2.90
2017,12,06,08,50,2.90
2017,12,06,08,51,2.90
2017,12,06,08,52,2.90
2017,12,06,08,53,3.00
2017,12,06,08,54,3.00
2017,12,06,08,55,3.10
2017,12,06,08,56,3.10
2017,12,06,08,57,3.10
2017,12,06,08,58,3.20
2017,12,06,08,59,3.20
2017,12,06,09,00,3.30
2017,12,06,09,01,3.40
2017,12,06,09,02,3.50
2017,12,06,09,03,3.50
2017,12,06,09,04,3.60
2017,12,06,09,05,3.70
2017,12,06,09,06,3.80
2017,12,06,09,07,3.80
2017,12,06,09,08,3.90
2017,12,06,09,09,3.90
2017,12,06,09,10,4.00
2017,12,06,09,11,4.00
2017,12,06,09,12,4.10
2017,12,06,09,13,4.10
2017,12,06,09,14,4.20
2017,12,06,09,15,4.20
2017,12,06,09,16,4.30
2017,12,06,09,17,4.30
2017,12,06,09,18,4.30
2017,12,06,09,19,4.40
2017,12,06,09,20,4.40
2017,12,06,09,21,4.40
2017,12,06,09,22,4.50
2017,12,06,09,23,4.50
2017,12,06,09,24,4.60
2017,12,06,09,25,4.60
2017,12,06,09,26,4.70
2017,12,06,09,27,4.80
2017,12,06,09,28,4.80
2017,12,06,09,29,4.80
2017,12,06,09,30,4.90
2017,12,06,09,31,4.90
2017,12,06,09,32,4.90
2017,12,06,09,33,5.00
2017,12,06,09,34,5.00
2017,12,06,09,35,5.00
2017,12,06,09,36,5.10
2017,12,06,09,37,5.10
2017,12,06,09,38,5.10
2017,12,06,09,39,5.10
2017,12,06,09,40,5.20
2017,12,06,09,41,5.20
2017,12,06,09,42,5.20
2017,12,06,09,43,5.20
2017,12,06,09,44,5.20
2017,12,06,09,45,5.30
2017,12,06,09,46,5.30
2017,12,06,09,47,5.30
2017,12,06,09,48,5.30
2017,12,06,09,49,5.30
2017,12,06,09,50,5.40
2017,12,06,09,51,5.40
2017,12,06,09,52,5.40
2017,12,06,09,53,5.40
2017,12,06,09,54,5.50
2017,12,06,09,55,5.50
2017,12,06,09,56,5.60
2017,12,06,09,57,5.60
2017,12,06,09,58,5.60
2017,12,06,09,59,5.70
2017,12,06,10,00,5.70
2017,12,06,10,01,5.70
2017,12,06,10,02,5.70
2017,12,06,10,03,5.80
2017,12,06,10,04,5.80
2017,12,06,10,05,5.80
2017,12,06,10,06,5.80
2017,12,06,10,07,5.80
2017,12,06,10,08,5.80
2017,12,06,10,09,5.80
2017,12,06,10,10,5.80
2017,12,06,10,11,5.80
2017,12,06,10,12,5.80
2017,12,06,10,13,5.90
2017,12,06,10,14,5.90
2017,12,06,10,15,5.90
2017,12,06,10,16,5.90
2017,12,06,10,17,5.90
2017,12,06,10,18,6.00
2017,12,06,10,19,6.00
2017,12,06,10,20,6.10
2017,12,06,10,21,6.10
2017,12,06,10,22,6.10
2017,12,06,10,23,6.20
2017,12,06,10,24,6.20
2017,12,06,10,25,6.20
2017,12,06,10,26,6.30
2017,12,06,10,27,6.30
2017,12,06,10,28,6.40
2017,12,06,10,29,6.40
2017,12,06,10,30,6.50
2017,12,06,10,31,6.60
2017,12,06,10,32,6.60
2017,12,06,10,33,6.70
2017,12,06,10,34,6.70
2017,12,06,10,35,6.70
2017,12,06,10,36,6.80
2017,12,06,10,37,6.80
2017,12,06,10,38,6.90
2017,12,06,10,39,6.90
2017,12,06,10,40,7.00
2017,12,06,10,41,7.00
2017,12,06,10,42,7.10
2017,12,06,10,43,7.10
2017,12,06,10,44,7.10
2017,12,06,10,45,7.10
2017,12,06,10,46,7.10
2017,12,06,10,47,7.10
2017,12,06,10,48,7.10
2017,12,06,10,49,7.10
2017,12,06,10,50,7.10
2017,12,06,10,51,7.10
2017,12,06,10,52,7.20
2017,12,06,10,53,7.20
2017,12,06,10,54,7.20
2017,12,06,10,55,7.20
2017,12,06,10,56,7.20
2017,12,06,10,57,7.20
2017,12,06,10,58,7.20
2017,12,06,10,59,7.20
2017,12,06,11,00,7.30
2017,12,06,11,01,7.30
2017,12,06,11,02,7.30
2017,12,06,11,03,7.30
2017,12,06,11,04,7.40
2017,12,06,11,05,7.40
2017,12,06,11,06,7.40
2017,12,06,11,07,7.40
2017,12,06,11,08,7.40
2017,12,06,11,09,7.50
2017,12,06,11,10,7.50
2017,12,06,11,11,7.50
2017,12,06,11,12,7.60
2017,12,06,11,13,7.60
2017,12,06,11,14,7.60
2017,12,06,11,15,7.60
2017,12,06,11,16,7.70
2017,12,06,11,17,7.70
2017,12,06,11,18,7.70
2017,12,06,11,19,7.80
2017,12,06,11,20,7.80
2017,12,06,11,21,7.80
2017,12,06,11,22,7.80
2017,12,06,11,23,7.80
2017,12,06,11,24,7.80
2017,12,06,11,25,7.80
2017,12,06,11,26,7.80
2017,12,06,11,27,7.80
2017,12,06,11,28,7.80
2017,12,06,11,29,7.80
2017,12,06,11,30,7.80
2017,12,06,11,31,7.80
2017,12,06,11,32,7.80
2017,12,06,11,33,7.80
2017,12,06,11,34,7.80
2017,12,06,11,35,7.80
2017,12,06,11,36,7.80
2017,12,06,11,37,7.80
2017,12,06,11,38,7.90
2017,12,06,11,39,7.90
2017,12,06,11,40,7.90
2017,12,06,11,41,8.00
2017,12,06,11,42,8.00
2017,12,06,11,43,8.00
2017,12,06,11,44,8.00
2017,12,06,11,45,8.00
2017,12,06,11,46,8.00
2017,12,06,11,47,8.10
2017,12,06,11,48,8.10
2017,12,06,11,49,8.20
2017,12,06,11,50,8.20
2017,12,06,11,51,8.20
2017,12,06,11,52,8.20
2017,12,06,11,53,8.20
2017,12,06,11,54,8.20
2017,12,06,11,55,8.20
2017,12,06,11,56,8.10
2017,12,06,11,57,8.20
2017,12,06,11,58,8.20
2017,12,06,11,59,8.20
2017,12,06,12,00,8.20
2017,12,06,12,01,8.20
2017,12,06,12,02,8.20
2017,12,06,12,03,8.20
2017,12,06,12,04,8.20
2017,12,06,12,05,8.20
2017,12,06,12,06,8.20
2017,12,06,12,07,8.20
2017,12,06,12,08,8.20
2017,12,06,12,09,8.20
2017,12,06,12,10,8.30
2017,12,06,12,11,8.30
2017,12,06,12,12,8.30
2017,12,06,12,13,8.30
2017,12,06,12,14,8.40
2017,12,06,12,15,8.40
2017,12,06,12,16,8.40
2017,12,06,12,17,8.40
2017,12,06,12,18,8.30
2017,12,06,12,19,8.30
2017,12,06,12,20,8.30
2017,12,06,12,21,8.30
2017,12,06,12,22,8.30
2017,12,06,12,23,8.30
2017,12,06,12,24,8.30
2017,12,06,12,25,8.40
2017,12,06,12,26,8.40
2017,12,06,12,27,8.40
2017,12,06,12,28,8.40
2017,12,06,12,29,8.40
2017,12,06,12,30,8.50
2017,12,06,12,31,8.50
2017,12,06,12,32,8.50
2017,12,06,12,33,8.50
2017,12,06,12,34,8.50
2017,12,06,12,35,8.50
2017,12,06,12,36,8.60
2017,12,06,12,37,8.60
2017,12,06,12,38,8.60
2017,12,06,12,39,8.60
2017,12,06,12,40,8.60
2017,12,06,12,41,8.60
2017,12,06,12,42,8.60
2017,12,06,12,43,8.60
2017,12,06,12,44,8.60
2017,12,06,12,45,8.60
2017,12,06,12,46,8.60
2017,12,06,12,47,8.60
2017,12,06,12,48,8.60
2017,12,06,12,49,8.60
2017,12,06,12,50,8.60
2017,12,06,12,51,8.50
2017,12,06,12,52,8.50
2017,12,06,12,53,8.50
2017,12,06,12,54,8.50
2017,12,06,12,55,8.40
2017,12,06,12,56,8.40
2017,12,06,12,57,8.40
2017,12,06,12,58,8.40
2017,12,06,12,59,8.50
2017,12,06,13,00,8.50
2017,12,06,13,01,8.50
2017,12,06,13,02,8.50
2017,12,06,13,03,8.60
2017,12,06,13,04,8.60
2017,12,06,13,05,8.50
2017,12,06,13,06,8.50
2017,12,06,13,07,8.60
2017,12,06,13,08,8.60
2017,12,06,13,09,8.60
2017,12,06,13,10,8.60
2017,12,06,13,11,8.60
2017,12,06,13,12,8.60
2017,12,06,13,13,8.60
2017,12,06,13,14,8.60
2017,12,06,13,15,8.60
2017,12,06,13,16,8.50
2017,12,06,13,17,8.50
2017,12,06,13,18,8.50
2017,12,06,13,19,8.50
2017,12,06,13,20,8.50
2017,12,06,13,21,8.50
2017,12,06,13,22,8.50
2017,12,06,13,23,8.50
2017,12,06,13,24,8.50
2017,12,06,13,25,8.50
2017,12,06,13,26,8.50
2017,12,06,13,27,8.50
2017,12,06,13,28,8.50
2017,12,06,13,29,8.50
2017,12,06,13,30,8.50
2017,12,06,13,31,8.50
2017,12,06,13,32,8.50
2017,12,06,13,33,8.50
2017,12,06,13,34,8.60
2017,12,06,13,35,8.60
2017,12,06,13,36,8.60
2017,12,06,13,37,8.60
2017,12,06,13,38,8.60
2017,12,06,13,39,8.60
2017,12,06,13,40,8.60
2017,12,06,13,41,8.60
2017,12,06,13,42,8.60
2017,12,06,13,43,8.60
2017,12,06,13,44,8.60
2017,12,06,13,45,8.60
2017,12,06,13,46,8.60
2017,12,06,13,47,8.60
2017,12,06,13,48,8.60
2017,12,06,13,49,8.60
2017,12,06,13,50,8.60
2017,12,06,13,51,8.60
2017,12,06,13,52,8.60
2017,12,06,13,53,8.60
2017,12,06,13,54,8.60
2017,12,06,13,55,8.70
2017,12,06,13,56,8.70
2017,12,06,13,57,8.70
2017,12,06,13,58,8.70
2017,12,06,13,59,8.70
2017,12,06,14,00,8.60
2017,12,06,14,01,8.60
2017,12,06,14,02,8.60
2017,12,06,14,03,8.60
2017,12,06,14,04,8.70
2017,12,06,14,05,8.70
2017,12,06,14,06,8.70
2017,12,06,14,07,8.70
2017,12,06,14,08,8.60
2017,12,06,14,09,8.60
2017,12,06,14,10,8.60
2017,12,06,14,11,8.60
2017,12,06,14,12,8.60
2017,12,06,14,13,8.60
2017,12,06,14,14,8.50
2017,12,06,14,15,8.50
2017,12,06,14,16,8.50
2017,12,06,14,17,8.40
2017,12,06,14,18,8.40
2017,12,06,14,19,8.40
2017,12,06,14,20,8.40
2017,12,06,14,21,8.50
2017,12,06,14,22,8.50
2017,12,06,14,23,8.50
2017,12,06,14,24,8.50
2017,12,06,14,25,8.50
2017,12,06,14,26,8.50
2017,12,06,14,27,8.50
2017,12,06,14,28,8.50
2017,12,06,14,29,8.50
2017,12,06,14,30,8.50
2017,12,06,14,31,8.50
2017,12,06,14,32,8.50
2017,12,06,14,33,8.50
2017,12,06,14,34,8.50
2017,12,06,14,35,8.50
2017,12,06,14,36,8.50
2017,12,06,14,37,8.50
2017,12,06,14,38,8.50
2017,12,06,14,39,8.50
2017,12,06,14,40,8.60
2017,12,06,14,41,8.60
2017,12,06,14,42,8.50
2017,12,06,14,43,8.60
2017,12,06,14,44,8.50
2017,12,06,14,45,8.50
2017,12,06,14,46,8.50
2017,12,06,14,47,8.50
2017,12,06,14,48,8.50
2017,12,06,14,49,8.50
2017,12,06,14,50,8.50
2017,12,06,14,51,8.50
2017,12,06,14,52,8.60
2017,12,06,14,53,8.60
2017,12,06,14,54,8.60
2017,12,06,14,55,8.60
2017,12,06,14,56,8.60
2017,12,06,14,57,8.60
2017,12,06,14,58,8.60
2017,12,06,14,59,8.60
2017,12,06,15,00,8.60
2017,12,06,15,01,8.60
2017,12,06,15,02,8.60
2017,12,06,15,03,8.60
2017,12,06,15,04,8.60
2017,12,06,15,05,8.60
2017,12,06,15,06,8.60
2017,12,06,15,07,8.60
2017,12,06,15,08,8.60
2017,12,06,15,09,8.50
2017,12,06,15,10,8.50
2017,12,06,15,11,8.50
2017,12,06,15,12,8.50
2017,12,06,15,13,8.50
2017,12,06,15,14,8.50
2017,12,06,15,15,8.50
2017,12,06,15,16,8.50
2017,12,06,15,17,8.50
2017,12,06,15,18,8.50
2017,12,06,15,19,8.50
2017,12,06,15,20,8.50
2017,12,06,15,21,8.50
2017,12,06,15,22,8.50
2017,12,06,15,23,8.50
2017,12,06,15,24,8.50
2017,12,06,15,25,8.50
2017,12,06,15,26,8.50
2017,12,06,15,27,8.40
2017,12,06,15,28,8.40
2017,12,06,15,29,8.40
2017,12,06,15,30,8.40
2017,12,06,15,31,8.40
2017,12,06,15,32,8.40
2017,12,06,15,33,8.40
2017,12,06,15,34,8.40
2017,12,06,15,35,8.40
2017,12,06,15,36,8.30
2017,12,06,15,37,8.30
2017,12,06,15,38,8.30
2017,12,06,15,39,8.30
2017,12,06,15,40,8.30
2017,12,06,15,41,8.30
2017,12,06,15,42,8.30
2017,12,06,15,43,8.30
2017,12,06,15,44,8.20
2017,12,06,15,45,8.20
2017,12,06,15,46,8.20
2017,12,06,15,47,8.20
2017,12,06,15,48,8.20
2017,12,06,15,49,8.20
2017,12,06,15,50,8.20
2017,12,06,15,51,8.20
2017,12,06,15,52,8.10
2017,12,06,15,53,8.10
2017,12,06,15,54,8.10
2017,12,06,15,55,8.10
2017,12,06,15,56,8.10
2017,12,06,15,57,8.10
2017,12,06,15,58,8.10
2017,12,06,15,59,8.10
2017,12,06,16,00,8.00
2017,12,06,16,01,8.00
2017,12,06,16,02,8.00
2017,12,06,16,03,8.00
2017,12,06,16,04,7.90
2017,12,06,16,05,7.90
2017,12,06,16,06,7.90
2017,12,06,16,07,7.90
2017,12,06,16,08,7.90
2017,12,06,16,09,7.90
2017,12,06,16,10,7.80
2017,12,06,16,11,7.80
2017,12,06,16,12,7.80
2017,12,06,16,13,7.80
2017,12,06,16,14,7.70
2017,12,06,16,15,7.70
2017,12,06,16,16,7.70
2017,12,06,16,17,7.70
2017,12,06,16,18,7.60
2017,12,06,16,19,7.60
2017,12,06,16,20,7.60
2017,12,06,16,21,7.50
2017,12,06,16,22,7.50
2017,12,06,16,23,7.40
2017,12,06,16,24,7.40
2017,12,06,16,25,7.40
2017,12,06,16,26,7.30
2017,12,06,16,27,7.30
2017,12,06,16,28,7.30
2017,12,06,16,29,7.30
2017,12,06,16,30,7.20
2017,12,06,16,31,7.20
2017,12,06,16,32,7.20
2017,12,06,16,33,7.20
2017,12,06,16,34,7.20
2017,12,06,16,35,7.20
2017,12,06,16,36,7.20
2017,12,06,16,37,7.10
2017,12,06,16,38,7.10
2017,12,06,16,39,7.10
2017,12,06,16,40,7.10
2017,12,06,16,41,7.10
2017,12,06,16,42,7.00
2017,12,06,16,43,7.00
2017,12,06,16,44,7.00
2017,12,06,16,45,7.00
2017,12,06,16,46,7.00
2017,12,06,16,47,6.90
2017,12,06,16,48,6.90
2017,12,06,16,49,6.90
2017,12,06,16,50,6.90
2017,12,06,16,51,6.80
2017,12,06,16,52,6.80
2017,12,06,16,53,6.80
2017,12,06,16,54,6.70
2017,12,06,16,55,6.70
2017,12,06,16,56,6.70
2017,12,06,16,57,6.60
2017,12,06,16,58,6.60
2017,12,06,16,59,6.60
2017,12,06,17,00,6.50
2017,12,06,17,01,6.50
2017,12,06,17,02,6.40
2017,12,06,17,03,6.40
2017,12,06,17,04,6.40
2017,12,06,17,05,6.30
2017,12,06,17,06,6.30
2017,12,06,17,07,6.30
2017,12,06,17,08,6.30
2017,12,06,17,09,6.30
2017,12,06,17,10,6.20
2017,12,06,17,11,6.20
2017,12,06,17,12,6.20
2017,12,06,17,13,6.20
2017,12,06,17,14,6.20
2017,12,06,17,15,6.10
2017,12,06,17,16,6.10
2017,12,06,17,17,6.10
2017,12,06,17,18,6.10
2017,12,06,17,19,6.10
2017,12,06,17,20,6.20
2017,12,06,17,21,6.20
2017,12,06,17,22,6.20
2017,12,06,17,23,6.20
2017,12,06,17,24,6.30
2017,12,06,17,25,6.30
2017,12,06,17,26,6.40
2017,12,06,17,27,6.40
2017,12,06,17,28,6.40
2017,12,06,17,29,6.40
2017,12,06,17,30,6.40
2017,12,06,17,31,6.40
2017,12,06,17,32,6.50
2017,12,06,17,33,6.50
2017,12,06,17,34,6.50
2017,12,06,17,35,6.50
2017,12,06,17,36,6.50
2017,12,06,17,37,6.50
2017,12,06,17,38,6.50
2017,12,06,17,39,6.50
2017,12,06,17,40,6.50
2017,12,06,17,41,6.50
2017,12,06,17,42,6.40
2017,12,06,17,43,6.40
2017,12,06,17,44,6.40
2017,12,06,17,45,6.40
2017,12,06,17,46,6.40
2017,12,06,17,47,6.40
2017,12,06,17,48,6.40
2017,12,06,17,49,6.40
2017,12,06,17,50,6.30
2017,12,06,17,51,6.30
2017,12,06,17,52,6.30
2017,12,06,17,53,6.30
2017,12,06,17,54,6.30
2017,12,06,17,55,6.30
2017,12,06,17,56,6.30
2017,12,06,17,57,6.30
2017,12,06,17,58,6.30
2017,12,06,17,59,6.30
2017,12,06,18,00,6.20
2017,12,06,18,01,6.20
2017,12,06,18,02,6.20
2017,12,06,18,03,6.20
2017,12,06,18,04,6.20
2017,12,06,18,05,6.10
2017,12,06,18,06,6.10